Weather Roundup
Issued by NWS

Home | Current Version | Previous Version | Graphics & Text | Print | Product List | Glossary Off
Versions: 1 2 3 4 5 6 7 8 9 10 11 12 13 14 15 16 17 18 19 20 21 22 23 24 25 26 27 28 29 30 31 32 33 34 35 36 37 38 39 40 41 42 43 44 45 46 47 48 49 50

162
NZUS93 KARX 200510
HRRWXR

CURRENT HOURLY OBSERVATIONS ACROSS
MUCH OF THE UPPER MISSISSIPPI VALLEY
NATIONAL WEATHER SERVICE LA CROSSE WI
1100 PM CST THU JAN 19 2017


...SOUTHEAST MINNESOTA...


CITY           SKY/WX    TMP DP  RH WIND       PRES   REMARKS
ROCHESTER      LGT RAIN  33  33 100 SE8       29.68F FOG     WCI  26
ROCHESTER/MAYO CLOUDY    35  35 100 E6        29.69F WCI  30
WINONA         DRIZZLE   36  34  93 SE6       29.73S WCI  31
AUSTIN         DRIZZLE   34  34 100 SE6       29.67S WCI  29
ALBERT LEA     DRZL/FOG  36  36 100 SE8       29.65F VSB 1/2 WCI  29
DODGE CENTER   MIX PCPN  34  34 100 CALM      29.67S
PRESTON        LGT RAIN  33  32  96 SE6       29.69F VSB 1   WCI  28
OWATONNA       CLOUDY   N/A N/A N/A CALM      29.66F FOG
FARIBAULT        N/A     36  34  93 E3        29.68S FOG
$$

...ELSEWHERE IN MINNESOTA...


CITY           SKY/WX    TMP DP  RH WIND       PRES   REMARKS
MINNEAPOLIS    CLOUDY    36  32  85 SE5       29.68F WCI  32
INTNL FALLS    MOCLDY    37  34  89 S6        29.61S FOG     WCI  32
DULUTH         CLOUDY    35  32  88 SE7       29.68F WCI  29
RED WING       DRIZZLE   37  34  87 SE8       29.70S WCI  31
REDWOOD FALLS  CLOUDY    34  32  92 SE9       29.63F FOG     WCI  27
MANKATO        MIX PCPN  34  34 100 SE8       29.66F FOG     WCI  27
WORTHINGTON    FOG       35  35 100 S13       29.60F VSB 3/4 WCI  26
FAIRMONT       FOG       34  33  96 SE7       29.64F VSB 1/2 WCI  28
$$

...SOUTHWEST WISCONSIN...


CITY           SKY/WX    TMP DP  RH WIND       PRES   REMARKS
LA CROSSE      LGT RAIN  38  35  89 S3        29.73F FOG
PRAIRIE DU CHI CLOUDY    35  34  96 E3        29.71S FOG
BOSCOBEL       CLOUDY    36  35  96 NE5       29.73S FOG     WCI  32
LONE ROCK      CLOUDY    36  34  92 E9        29.74F FOG     WCI  29
PLATTEVILLE    CLOUDY    36  36 100 E14       29.70F WCI  27
FORT MC COY    RAIN      34  34 100 E6        29.75F WCI  29
CAMP DOUGLAS   LGT RAIN  34  32  93 E6        29.75F FOG     WCI  29
MAUSTON-NEW LI HVY RAIN  34  34  99 SE3       29.75F
VIROQUA        CLOUDY    34  34 100 E8        29.71F WCI  27
WIS DELLS      MIX PCPN  33  33  99 E7        29.75F VSB 1   WCI  27
$$

...ELSEWHERE IN WISCONSIN...


CITY           SKY/WX    TMP DP  RH WIND       PRES   REMARKS
MILWAUKEE      LGT RAIN  38  36  92 E8        29.78F VSB 1/2 WCI  32
MADISON        RAIN      35  34  96 E6        29.76F FOG     WCI  30
GREEN BAY      CLOUDY    34  34 100 E5        29.81F FOG     WCI  30
EAU CLAIRE     MIX PCPN  36  33  89 SE7       29.73F WCI  30
BLACK RVR FLS  LGT RAIN  35  35 100 E5        29.75F WCI  31
MEDFORD        MIX PCPN  31  31  99 SE5       29.75S WCI  26
WAUSAU         CLOUDY    31  31 100 SE6       29.77S FOG     WCI  25
WIS RAPIDS     MIX PCPN  33  33 100 E5        29.78F FOG     WCI  29
MARSHFIELD     LGT RAIN  33  31  92 SE7       29.75F FOG     WCI  27
RICE LAKE      CLOUDY    35  32  88 E7        29.73F WCI  29
$$

...NORTHEAST IOWA...


CITY           SKY/WX    TMP DP  RH WIND       PRES   REMARKS
WATERLOO       FOG       35  34  96 E6        29.67F VSB 1/4 WCI  30
DUBUQUE        FOG       36  36 100 E10       29.69S VSB 1   WCI  28
DECORAH        MIX PCPN  36  34  93 E8        29.68F VSB 1   WCI  29
MASON CITY     FOG       34  34 100 SE6       29.66F VSB 3/4 WCI  29
CHARLES CITY   FOG       34  34 100 SE7       29.67F VSB 1/4 WCI  28
OELWEIN        FOG       36  34  93 E9        29.67F VSB 3/4 WCI  29
$$

...ELSEWHERE IN IOWA...


CITY           SKY/WX    TMP DP  RH WIND       PRES   REMARKS
DES MOINES     FOG       38  37  97 CALM      29.64F VSB 1/8
IOWA CITY      CLOUDY    38  37  97 E6        29.68F FOG     WCI  33
FORT DODGE     CLOUDY    36  34  93 SE3       29.65F VSB 3/4
MARSHALLTOWN   FOG       36  36 100 E5        29.65F VSB 1/4 WCI  32
CEDAR RAPIDS   FOG       36  35  96 E5        29.66S VSB 1/2 WCI  32
$$

...NORTHERN ILLINOIS...


CITY           SKY/WX    TMP DP  RH WIND       PRES   REMARKS
CHICAGO-OHARE  LGT RAIN  38  37  97 NE8       29.72F FOG     WCI  32
CHICAGO-MIDWAY LGT RAIN  38  36  92 E8        29.72F FOG     WCI  32
MOLINE         CLOUDY    38  36  92 E9        29.66F FOG     WCI  31
ROCKFORD       CLOUDY    38  36  92 NE8       29.74F FOG     WCI  32
PEORIA         CLOUDY    41  40  96 NE7       29.66F FOG
$$

NOTE: "FAIR" INDICATES FEW OR NO CLOUDS BELOW 12,000 FEET WITH NO
SIGNIFICANT WEATHER AND/OR OBSTRUCTIONS TO VISIBILITY. WIND
SPEEDS ARE IN MILES-PER-HOUR.




USA.gov is the U.S. government's official web portal to all federal, state and local government web resources and services.